Location: Saint-Palais-sur-Mer
(45.6429°N, 1.0859°W)
Time: 04:35:25
(UTC+01:00)

Tiros 1 - Pass Details

Date: 12 February 2026
Orbit: 618 x 650 km, 48.4° (Epoch: 16 March)

Event Time Altitude Azimuth Distance (km) Brightness Sun altitude
Rises 19:04:00 0° 278° (W) 2,888 12.1 -7.1°
Reaches altitude 10° 19:08:44 10° 234° (SW) 1,981 10.9 -7.9°
Maximum altitude 19:09:09 10° 228° (SW) 1,973 10.7 -8.0°
Drops below altitude 10° 19:09:35 10° 223° (SW) 1,981 10.6 -8.1°
Sets 19:14:20 0° 179° (S) 2,888 10.6 -8.9°
